This is the latest recevied weather packets stored in our database for station/object KD7ECD. If no packets are shown the sender has not sent any weather packets the latest 10 day(s).
| Time | Temp. | Humidity | Pressure | Rain* | Wind** | Luminosity | Snow |
|---|---|---|---|---|---|---|---|
| 1777787385 | 11.67° C | 90% | 1014.8 hPa | 0 mm | - | 0 W/m² | - |
| 1777786785 | 11.67° C | 90% | 1014.8 hPa | 0 mm | - | 0 W/m² | - |
| 1777786185 | 11.67° C | 90% | 1015 hPa | 0 mm | - | 0 W/m² | - |
| 1777785584 | 11.67° C | 90% | 1014.7 hPa | 0 mm | - | 0 W/m² | - |
| 1777784983 | 11.67° C | 89% | 1014.9 hPa | 0 mm | - | 0 W/m² | - |
| 1777784383 | 11.67° C | 89% | 1015 hPa | 0 mm | - | 0 W/m² | - |
| 1777783783 | 11.67° C | 89% | 1014.6 hPa | 0 mm | - | 0 W/m² | - |
| 1777783177 | 11.67° C | 88% | 1014.8 hPa | 0 mm | - | 0 W/m² | - |
| 1777782575 | 11.67° C | 88% | 1014.5 hPa | 0 mm | - | 0 W/m² | - |
| 1777781974 | 11.67° C | 88% | 1014.7 hPa | 0 mm | - | 0 W/m² | - |
| 1777781374 | 11.67° C | 88% | 1014.7 hPa | 0 mm | - | 0 W/m² | - |
| 1777780769 | 11.67° C | 88% | 1014.4 hPa | 0 mm | - | 0 W/m² | - |
| 1777780169 | 11.67° C | 88% | 1014.3 hPa | 0 mm | - | 0 W/m² | - |
| 1777779569 | 11.67° C | 88% | 1014.2 hPa | 0 mm | - | 0 W/m² | - |
| 1777778965 | 11.67° C | 88% | 1014 hPa | 0 mm | - | 0 W/m² | - |
| 1777778360 | 11.67° C | 87% | 1013.5 hPa | 0 mm | - | 0 W/m² | - |
| 1777777760 | 12.22° C | 87% | 1013.5 hPa | 0 mm | - | 0 W/m² | - |
| 1777777159 | 12.22° C | 86% | 1013.3 hPa | 0 mm | - | 0 W/m² | - |
| 1777776560 | 12.22° C | 86% | 1013.7 hPa | 0 mm | - | 4 W/m² | - |
| 1777775959 | 12.78° C | 85% | 1013.3 hPa | 0 mm | - | 13 W/m² | - |
| 1777775359 | 12.78° C | 84% | 1013.2 hPa | 0 mm | - | 22 W/m² | - |
| 1777774756 | 13.33° C | 83% | 1013.4 hPa | 0 mm | - | 31 W/m² | - |
| 1777774155 | 13.33° C | 82% | 1013.3 hPa | 0 mm | - | 44 W/m² | - |
| 1777773555 | 13.89° C | 81% | 1013.1 hPa | 0 mm | - | 59 W/m² | - |
| 1777772954 | 13.89° C | 81% | 1013.3 hPa | 0 mm | - | 70 W/m² | - |
* Rain latest hour (hover to see other rain measurements)
** Current wind speed in m/s (hover to see current wind gust speed)